Location: Zagreb
(45.8000°N, 16.0000°E)
Time: 20:44:08
(UTC+01:00)

YUBILEINY - Pass Details

Date: 04 November 2020
Orbit: 1478 x 1509 km, 82.5° (Epoch: 01 December)

Event Time Altitude Azimuth Distance (km) Brightness Sun altitude
Rises 21:42:11 0° 347° (NNW) 4,610 ? -51.2°
Reaches altitude 10° 21:45:08 10° 343° (NNW) 3,627 ? -51.6°
Enters shadow 21:48:30 26° 334° (NNW) 2,591 ? -52.0°
